GFSSE_250_spd_021.txt.gz
Wind_Speed
78 77 75 77 79 78 79 80 78 81 83 85 85 87 86 89 92 93 94 93 90 92 90 89 93 92 94 92 84 81 78 73 68 61 53 50 49 49 45 39 29 29 27
85 81 79 83 84 84 81 81 85 88 87 88 90 90 94 91 95 92 94 90 94 92 86 92 97 98 91 89 80 76 71 66 64 52 51 48 47 44 42 42 36 30 28
87 88 86 88 86 86 89 89 90 91 92 93 88 95 91 92 94 89 90 95 88 86 95 96 98 93 87 87 75 70 61 58 53 52 53 50 49 47 45 38 36 31 26
86 87 86 84 86 87 86 91 93 92 92 92 95 89 91 91 86 91 92 89 90 97 95 98 95 86 85 77 68 60 55 51 50 50 50 49 48 47 43 40 32 32 27
84 85 84 89 84 84 84 89 92 90 91 94 85 89 92 86 90 91 87 91 95 98 99 93 84 81 75 69 63 52 47 46 50 52 50 50 49 41 35 36 33 30 29
79 75 79 81 81 87 92 97 95 90 86 83 88 95 85 90 90 86 92 93 92 96 93 88 83 80 70 64 56 47 46 45 48 49 49 41 41 39 31 31 32 29 24
68 66 75 79 77 83 82 82 84 83 82 88 91 84 90 90 88 96 97 98 97 101 87 87 74 69 62 53 51 48 47 43 44 45 41 39 39 36 30 25 28 27 23
71 75 72 68 68 74 79 82 82 88 83 82 89 90 93 96 94 96 100 95 93 88 82 74 66 63 54 53 54 47 47 45 42 42 41 37 32 32 30 26 24 25 22
81 81 80 81 79 75 75 84 81 78 91 88 91 91 94 96 100 99 90 94 85 82 73 69 61 62 56 55 51 47 44 40 40 41 39 36 34 32 32 31 26 24 24
78 88 84 78 78 78 73 78 87 84 86 93 91 90 96 92 85 88 91 80 78 74 70 63 59 56 55 56 50 46 47 44 46 40 40 37 37 35 32 29 28 25 26
74 71 73 78 77 76 74 78 82 87 87 90 84 90 90 87 85 79 75 77 69 68 69 61 61 58 58 53 50 47 46 50 49 42 39 39 38 36 34 31 30 30 31
79 77 71 71 69 68 73 77 87 88 88 86 92 90 76 81 82 71 72 72 69 67 62 59 59 61 59 57 54 53 50 51 53 49 46 43 39 38 37 37 36 37 34
68 74 69 68 74 79 88 87 85 91 91 92 88 80 77 77 77 75 71 67 66 64 61 60 58 58 58 56 53 51 51 50 52 51 52 48 46 44 42 41 40 38 37
66 62 65 70 79 82 86 91 85 85 90 85 87 81 78 78 73 68 64 65 64 65 61 61 61 60 62 64 62 57 57 57 55 53 52 53 51 49 48 47 43 43 42
65 68 71 76 76 75 80 83 87 84 84 85 84 78 74 72 68 64 64 63 63 62 64 67 65 68 70 69 66 65 63 61 61 61 56 54 55 52 51 50 48 46 44
73 70 74 74 72 74 79 80 82 81 79 79 75 69 71 70 69 66 67 70 69 69 71 72 72 71 71 71 70 70 69 68 67 65 61 60 60 58 56 55 54 51 50
66 66 68 69 71 76 77 73 72 63 64 66 64 61 72 73 69 73 74 76 77 77 75 79 74 74 73 73 73 73 72 70 68 67 66 66 64 63 62 61 62 62 61
62 63 64 66 67 68 64 59 51 52 59 59 63 63 69 71 72 78 84 79 82 84 86 84 81 77 76 75 75 75 74 74 74 73 71 70 70 70 70 70 70 69 69
61 60 60 56 50 51 48 36 47 53 58 59 62 67 68 73 84 90 87 85 87 89 89 89 83 79 79 78 78 79 81 81 80 79 80 79 80 80 79 79 78 77 76
47 49 47 44 43 25 51 47 55 56 58 61 65 67 73 84 88 95 92 94 92 88 87 83 84 83 83 83 85 85 85 84 85 85 86 87 87 87 87 86 86 86 86
43 42 40 37 41 40 52 53 57 63 70 73 76 81 85 89 93 95 94 90 88 85 86 86 87 88 89 89 88 87 88 89 91 92 95 95 95 96 98 99 98 96 94
38 40 40 40 44 45 54 58 61 65 69 74 79 84 86 88 88 88 85 85 88 89 89 89 89 89 89 89 91 94 95 99 102 105 107 110 112 112 112 112 111 110 109
34 35 39 42 47 49 54 60 64 66 69 72 75 77 78 79 81 84 85 85 86 88 90 90 91 94 98 102 105 108 108 110 113 116 117 118 121 122 123 122 123 123 123
34 36 39 41 45 48 52 55 58 62 66 69 72 74 76 77 79 81 83 85 87 88 90 93 97 103 108 112 115 118 118 120 120 117 119 121 123 125 126 124 123 121 118
33 36 40 42 45 48 51 54 58 61 64 66 68 71 73 75 78 79 81 83 86 90 95 101 107 111 113 114 117 119 120 119 123 125 121 122 120 121 121 119 115 112 114
39 43 46 48 51 53 56 59 61 63 64 66 68 71 73 75 76 76 80 87 92 98 104 110 113 115 115 117 119 116 114 117 120 121 115 112 112 115 110 105 104 102 102

GFSSE_250_spd_024.txt.gz
Wind_Speed
79 80 82 81 81 80 80 79 77 78 79 80 82 84 81 84 87 87 89 91 90 91 89 89 84 86 81 92 86 83 82 80 76 68 63 56 56 52 51 50 47 42 38
80 81 82 81 79 81 83 81 83 82 86 86 85 82 83 87 92 94 91 89 85 85 85 83 84 85 89 86 89 80 79 77 67 59 53 54 48 48 49 48 46 43 41
75 81 83 84 82 81 85 86 85 83 81 81 82 87 89 93 92 88 83 85 89 80 81 85 88 89 90 87 88 80 76 67 65 55 50 50 47 44 44 44 39 37 34
77 81 81 82 79 81 84 83 86 86 87 84 84 86 85 83 82 81 86 86 81 85 88 92 88 93 94 87 81 76 68 63 59 52 52 47 45 42 38 33 33 32 30
80 82 86 85 85 77 74 78 79 81 78 85 89 87 80 81 84 82 82 77 85 89 88 89 94 91 85 89 72 69 64 59 50 48 48 45 43 37 33 32 29 29 26
79 80 84 80 72 70 69 74 73 77 82 82 80 76 83 79 84 83 81 88 90 92 92 93 87 82 85 73 68 65 55 53 48 47 44 42 43 37 33 26 25 26 23
56 56 64 67 62 72 73 70 73 73 67 73 80 83 78 82 81 87 86 86 92 82 87 76 74 78 70 66 64 57 53 52 52 44 41 38 40 38 32 28 25 24 22
72 71 62 65 68 68 68 64 60 69 81 81 74 79 77 75 84 88 85 92 86 88 87 86 71 71 68 64 61 56 51 50 46 42 39 39 40 38 34 30 27 26 23
66 76 75 70 76 80 77 75 81 80 78 80 82 89 90 77 81 86 91 89 87 86 79 74 70 69 64 62 54 53 52 48 43 42 40 39 41 40 37 32 30 30 26
70 71 75 73 72 76 81 76 72 79 85 82 84 83 77 80 85 96 90 82 83 73 72 71 70 64 61 59 54 52 51 48 45 44 42 43 41 42 41 37 32 28 28
72 70 71 71 74 80 72 68 80 78 75 75 74 78 90 91 92 91 83 83 80 75 71 66 63 61 59 59 54 50 47 44 44 44 42 44 44 42 43 43 38 34 30
55 57 49 53 56 59 61 72 66 67 70 75 83 81 83 85 86 81 85 87 76 82 73 63 60 58 59 55 53 52 51 48 48 50 47 46 47 44 43 44 42 38 36
69 56 65 63 56 55 65 62 69 71 73 79 84 89 89 87 82 86 84 81 78 76 70 62 59 56 57 56 59 56 54 57 57 47 47 50 50 49 49 45 46 45 42
55 57 62 64 61 65 66 68 70 77 81 85 87 85 85 85 83 82 81 82 71 65 63 55 63 63 67 63 61 62 63 61 58 54 50 52 51 52 54 51 48 48 47
72 63 66 66 71 74 78 79 80 81 85 84 85 85 84 85 84 81 75 70 66 60 62 68 68 73 74 71 71 67 64 61 60 59 58 59 58 57 55 55 54 53 52
61 64 66 69 73 75 73 74 79 79 81 81 81 78 77 75 76 75 73 70 72 72 70 72 74 80 81 82 81 81 75 71 69 67 66 63 64 61 57 55 55 57 59
65 65 67 69 71 73 74 72 72 74 76 76 72 69 64 66 68 71 73 73 73 75 78 81 84 84 87 90 91 83 80 76 71 70 71 71 68 66 65 62 60 60 61
54 57 61 63 67 67 69 69 60 58 56 57 55 60 62 61 68 75 74 69 70 72 80 81 87 94 97 94 86 84 80 79 78 74 73 73 73 72 69 69 68 68 67
55 57 58 57 59 58 55 46 48 49 51 56 55 57 61 62 67 73 74 78 81 85 88 92 98 100 93 88 85 84 83 83 82 81 78 77 77 76 75 72 74 75 73
51 52 52 51 51 47 46 47 46 54 50 55 58 64 71 76 83 85 90 93 96 98 99 98 95 91 88 87 87 85 85 84 80 80 80 82 82 82 84 84 82 85 83
45 46 47 46 44 43 44 50 57 58 66 65 67 71 77 81 84 89 93 95 93 91 90 88 91 89 90 89 86 83 83 84 83 85 90 92 95 96 98 99 98 95 95
40 39 37 36 38 40 42 48 52 56 59 66 72 77 81 84 86 84 83 85 86 88 87 88 89 89 89 86 85 88 90 94 99 98 102 107 109 109 112 112 112 111 109
35 36 36 37 39 41 43 46 50 55 59 63 66 69 73 76 79 81 83 84 85 85 87 87 87 86 89 93 94 98 102 106 108 113 116 117 119 120 121 122 123 121 120
27 29 33 36 39 43 47 51 54 58 61 66 69 72 75 77 79 81 82 83 84 84 82 83 88 93 95 100 106 109 111 115 119 118 119 121 121 125 125 124 121 119 116
30 34 37 41 44 47 51 55 59 62 66 68 71 73 74 75 75 75 76 76 78 81 85 90 94 97 104 109 114 118 121 121 121 117 113 115 119 120 117 119 115 112 109
34 37 40 44 48 52 55 58 61 64 65 66 67 68 67 67 67 69 73 78 83 87 91 95 100 106 110 115 118 120 119 114 114 117 118 118 116 117 113 108 105 102 97

GFSSE_250_spd_030.txt.gz
Wind_Speed
73 75 73 73 75 75 75 75 76 75 76 77 79 80 80 83 85 85 84 86 87 86 86 81 83 85 85 81 80 78 78 80 79 80 83 80 80 73 71 69 64 59 58
74 71 70 72 75 74 75 75 75 75 76 75 75 74 75 76 78 81 80 80 80 84 82 87 87 86 82 77 82 84 83 80 76 82 80 81 76 66 70 69 59 56 58
67 63 66 68 70 69 67 71 74 73 71 71 72 70 73 77 77 78 79 72 74 76 81 84 78 72 75 78 82 90 80 74 79 79 74 77 74 66 60 58 55 58 56
74 71 73 73 73 74 73 70 73 73 75 73 73 73 72 73 56 64 65 72 78 71 70 74 66 75 74 84 85 80 74 75 74 81 75 75 68 59 55 55 54 55 47
74 73 71 70 75 76 74 73 78 76 78 75 73 76 74 67 67 67 70 68 66 66 69 65 72 79 80 87 76 72 73 76 80 80 81 66 59 56 54 52 54 48 41
72 74 73 73 76 78 75 78 83 86 80 79 61 66 59 61 63 64 62 61 64 66 69 80 76 81 85 72 70 75 79 87 87 71 69 57 55 51 52 52 51 43 38
67 69 67 67 72 74 75 77 70 67 72 74 68 62 56 63 60 61 62 67 74 79 76 79 80 79 69 73 79 85 87 91 82 68 69 54 54 49 49 48 45 42 39
58 58 60 61 69 68 70 63 66 57 57 57 52 55 59 60 65 72 79 74 72 71 78 75 70 73 74 82 87 86 89 81 78 65 59 48 47 45 43 43 44 42 40
54 49 44 57 54 58 56 47 43 50 51 48 57 59 62 68 70 72 71 72 73 78 77 75 77 80 86 86 88 89 87 72 60 52 50 46 43 41 42 43 42 40 41
37 30 44 58 58 55 39 43 51 52 51 54 59 61 70 75 79 75 72 80 78 80 81 80 88 92 97 90 89 85 77 65 57 53 51 45 42 44 45 44 44 45 42
25 30 46 61 62 43 48 53 62 56 57 67 70 77 87 84 79 80 75 78 87 86 88 93 90 89 91 89 88 78 64 56 51 47 47 50 53 47 46 52 43 49 46
40 48 52 60 59 56 57 57 58 56 69 74 79 79 84 83 83 86 89 86 86 89 91 94 94 94 87 83 73 70 62 54 45 48 51 53 48 52 42 48 44 48 48
44 54 64 65 58 60 58 62 68 75 77 81 80 77 73 80 79 82 86 86 91 94 95 90 86 89 87 85 68 60 57 57 56 52 50 62 66 50 47 52 46 46 46
61 51 60 62 64 68 72 72 78 81 81 82 78 77 81 81 83 88 90 96 98 97 97 96 91 89 80 71 66 63 61 69 66 68 70 72 74 74 70 62 52 47 47
65 70 72 77 75 78 85 85 87 89 90 92 88 91 85 85 87 94 99 100 100 101 98 93 87 77 69 67 70 73 64 73 75 80 78 82 79 80 76 62 55 53 54
64 70 77 80 82 84 89 89 88 89 92 93 87 86 91 93 98 102 104 99 99 95 89 78 73 73 68 71 72 75 74 78 85 87 87 84 89 88 77 71 66 60 59
66 72 78 79 81 77 81 85 86 87 84 83 87 93 97 98 99 98 98 95 84 81 80 75 73 73 77 79 83 81 87 88 90 93 94 95 82 78 76 72 66 65 63
68 72 73 74 79 82 84 84 87 87 93 93 96 97 96 94 94 92 90 84 81 82 79 79 82 84 84 88 89 91 91 93 91 85 83 85 83 78 75 74 72 69 68
67 72 72 74 79 84 88 90 89 91 91 91 89 86 89 86 82 80 80 81 82 81 83 84 86 88 86 83 83 88 88 90 92 89 82 79 80 80 80 77 73 71 71
47 54 62 67 70 80 80 81 81 81 81 81 80 80 77 72 72 75 78 80 83 82 86 87 87 88 88 86 84 84 81 80 79 78 76 78 81 82 84 85 85 84 84
49 60 60 61 59 64 69 73 74 73 72 70 69 66 65 64 66 68 71 75 79 81 82 84 84 81 80 77 74 70 69 71 79 83 87 90 93 95 98 99 100 100 99
49 50 56 58 58 56 56 57 58 57 56 55 55 57 60 65 69 71 74 75 75 76 76 74 72 69 69 70 69 74 77 80 87 93 98 102 105 109 111 112 113 113 113
49 48 47 47 45 44 46 45 43 44 46 50 53 58 61 63 65 66 68 69 70 71 71 69 67 67 68 73 79 83 86 91 95 101 105 108 111 116 119 120 118 116 113
38 38 37 34 33 33 35 38 40 43 46 50 52 56 58 62 64 65 66 67 69 71 72 71 71 73 77 80 86 93 98 102 104 104 106 109 111 114 116 114 111 108 108
29 27 28 28 29 33 35 38 37 37 41 47 50 53 57 59 62 64 67 69 70 70 71 73 77 80 85 91 96 101 106 109 111 111 105 104 103 106 108 109 109 109 110
24 24 25 27 28 30 35 37 40 46 49 54 57 61 63 64 63 63 67 70 71 73 75 77 81 87 93 99 105 108 109 110 109 106 103 97 93 98 103 104 103 103 102

GFSSE_250_spd_033.txt.gz
Wind_Speed
67 66 64 69 68 66 63 63 68 70 71 72 72 72 72 73 76 77 76 75 73 73 74 77 76 75 74 71 73 75 69 67 72 74 79 83 68 68 72 80 86 80 71
70 71 68 76 73 68 65 68 70 70 68 66 66 70 72 76 72 71 72 72 74 71 71 62 64 64 67 70 67 59 59 68 80 73 85 70 68 73 79 87 88 75 64
73 71 71 76 73 62 63 66 66 68 70 69 70 71 69 71 71 74 74 71 74 74 68 69 68 69 67 65 58 56 71 76 74 77 71 67 71 77 83 87 89 72 66
78 74 76 72 71 69 71 77 76 76 74 72 73 69 63 69 74 75 76 71 71 64 66 66 66 64 59 62 64 69 73 72 74 73 72 73 78 86 90 95 77 69 62
73 70 73 74 74 76 79 80 77 75 74 73 75 73 72 76 78 79 76 55 59 60 64 70 64 63 67 70 74 72 74 67 71 69 79 82 93 95 92 75 65 64 57
70 68 71 72 76 75 79 82 79 79 76 73 73 70 75 73 68 70 70 62 61 66 70 61 66 71 71 67 70 76 73 72 83 82 90 93 94 92 82 66 59 57 53
59 60 63 70 72 75 78 79 74 71 69 68 64 64 67 67 63 61 58 66 63 62 67 70 71 63 70 74 77 76 80 81 82 89 95 94 92 83 68 61 55 54 48
49 52 57 63 66 69 72 70 65 60 58 58 61 59 57 56 59 58 57 65 61 69 71 67 76 80 75 80 81 82 83 85 90 97 99 92 78 70 64 55 50 48 45
50 48 50 51 57 61 66 65 61 58 52 52 50 46 48 54 53 55 59 67 66 65 75 73 75 77 75 79 90 89 92 92 99 97 90 81 74 60 53 48 43 43 47
31 56 55 53 51 51 52 51 51 54 53 44 42 46 47 53 58 64 64 67 75 78 85 76 78 88 88 93 91 96 99 100 100 86 73 65 56 49 50 47 43 46 50
55 54 48 46 49 51 57 57 61 50 40 43 47 50 52 58 55 62 69 76 77 80 81 90 87 83 86 90 96 102 101 97 84 83 71 55 46 41 47 47 49 48 46
43 47 47 52 56 53 57 58 58 44 46 46 56 61 65 68 68 73 79 81 83 80 80 87 88 88 92 95 97 95 94 92 83 72 63 55 55 47 46 46 47 56 57
34 45 49 51 61 59 63 64 55 54 51 60 61 66 69 69 76 73 77 83 85 81 86 90 93 94 95 95 95 94 88 81 73 63 60 57 57 58 60 65 65 67 70
29 39 50 54 63 64 58 50 49 55 58 59 61 69 73 75 82 88 92 91 92 94 102 100 95 97 99 99 94 91 82 79 74 71 68 71 74 73 74 72 74 70 68
38 46 45 56 57 51 57 59 59 66 66 69 74 81 86 92 88 92 94 95 94 96 96 97 100 100 102 95 90 83 78 76 77 76 78 75 80 75 75 75 75 73 69
55 55 55 60 60 61 68 69 68 76 75 79 87 90 92 89 93 94 93 96 99 101 106 103 104 101 103 91 84 80 76 79 81 81 81 86 87 87 85 85 82 76 73
65 63 66 68 69 70 79 83 86 86 84 87 91 87 86 88 91 97 103 102 96 97 97 98 101 102 92 87 84 82 83 84 83 82 80 80 79 80 80 79 75 74 72
64 69 67 74 72 76 75 75 80 84 85 87 90 93 95 96 95 96 100 99 98 98 98 98 93 87 87 86 86 86 87 88 88 85 82 77 74 72 72 72 72 71 71
51 70 70 71 74 81 77 75 75 79 81 83 85 89 91 86 94 94 93 97 97 95 90 83 80 83 86 88 87 87 84 81 79 74 72 70 69 69 71 74 76 79 80
50 63 74 76 76 79 75 78 80 82 88 92 90 93 95 91 88 93 92 87 83 79 77 80 80 80 80 80 79 77 75 70 70 69 71 74 76 81 85 86 88 90 90
39 38 44 62 70 67 68 71 79 83 86 83 83 84 81 81 82 79 73 75 77 77 76 77 77 75 75 77 78 77 76 75 75 77 80 83 87 91 95 99 100 102 102
43 47 49 50 57 64 66 66 69 73 75 77 74 72 69 65 64 65 66 67 69 72 73 74 74 76 79 81 80 77 75 76 79 82 86 91 97 101 106 111 113 114 113
44 45 47 54 58 58 61 64 67 67 64 60 57 56 54 52 53 56 59 61 64 68 71 72 74 76 76 77 78 77 76 78 81 88 95 99 106 112 115 120 121 116 113
43 45 50 54 57 55 55 53 51 49 47 49 47 47 48 50 53 57 61 67 70 73 76 77 78 75 76 76 79 83 87 89 91 94 99 104 108 112 114 115 116 111 106
40 41 43 45 45 43 42 42 42 42 40 41 45 47 51 55 62 67 71 74 78 80 80 79 78 78 79 84 89 93 97 101 104 104 100 97 100 103 103 108 108 105 103
33 34 36 36 39 39 39 40 40 41 41 44 47 51 55 61 65 70 75 79 84 85 80 79 77 80 86 90 95 100 105 106 106 102 97 96 96 98 102 106 106 102 99